sat.trackr.live / text

‹ back to catalog

STARLINK-5364

NORAD 55491 · 2023-015AU

PAYLOAD ACTIVE UNKNOWN

§ Identity

Operator
Country
US
Launch date
2023-02-02
Launch site
AFETR
Launch vehicle
Mass (kg)
RCS (m²)

Purposes: comms

External: N2YO · Heavens-Above · Gunter

§ Orbital elements

Epoch: 2026-05-24T23:39:24.658848Z

Period
94.27 min
Inclination
43.0011°
Eccentricity
0.0001195
Mean motion
15.27576077 rev/d
Perigee alt
482.2 km
Apogee alt
483.9 km
Semi-major
6,861.2 km
B*
2.2779e-5
RAAN
250.5212°
Arg perigee
273.9045°
Mean anomaly
86.1670°
Rev number
18,247

§ Raw data

STARLINK-53641 55491U 23015AU  26144.98570207  .00000365  00000+0  22779-4 0  99942 55491  43.0011 250.5212 0001195 273.9045  86.1670 15.27576077182475

JSON: /api/v1/satellites/55491 · /tle

For live sub-satellite position, see the globe view (requires WebGL).

§ Visibility from observer

Set your observer location to see the next 7 days of passes ≥ 10°. The values pass through the URL so the page stays shareable.

No JS? Fill the form by hand. The geolocation button needs JavaScript.